Погода Агзу

Погода Агзу : погода сейчас, прогноз погоды и архив. Всё, что Вы хотите узнать о погоде Агзу!

Хотите узнать прогноз погоды Агзу? Тогда Вам сюда: Погода Агзу

Поиск расширенной информации на нашем сайте:

Другие новости

Новости СМИ2

Главная страница сайта

Новости сайта

02.10.2013

Напоминаем, что на нашем новом сайте вы можете получить высокодетализированные прогнозы погоды по пунктам России, СНГ и мира (включающие важные для авиации метеовеличины, такие как направление и скорость ветра, видимость, явления погоды, количество и форма облачности, нижняя и верхняя граница облачности), а также ознакомиться с разнообразными материалами по авиационной метеорологии и подборкой полезных ссылок на эту тему.

Сайт Метеоцентр.Азия посвящён разработке технологий оптимизации авиаметеорологического обслуживания, включая проектирование и перспективное создание нескольких автоматизированных авиаметеорологических систем:
- система выпуска высокодетальных прогностических карт явлений погоды для нижнего воздушного пространства по России и ближнему зарубежью;
- система верификации прогнозов TAF (выпускаемых синоптиками официальных АМСГ РФ и ближнего зарубежья) и AUTOTAF (выпускаемых сайтом Метеоцентр.Азия) - выявление ошибок, онлайн-сопоставление с фактической погодой METAR, автоматическое внесение коррективов в прогнозы при резком отклонении фактической погоды от прогноза, подсчёт оправдываемости прогнозов по элементам и в целом;
- система обработки, анализа и отображения авиаметеорологической информации для применения провайдерами метеорологической информации.

Рекомендуем: Подробное описание тут новинок

Погода Агзу - сегодня

Время (UTC), дата Ветер
(°,м/с) 
Видим.   Явления Облачность Т
(°С)
Тd
(°С)
f(%) Тe
(°С)
Pmin
(гПа)
dP
(гПа)
Po
(мм)
O2
(г/м3)
Тmin Tmax R s Состояние
почвы
12 18.02.17 310 (СЗ) н/о    н/о 
-14.4 -22.6 50 -17  1013.6  1.7  744  318           
15 18.02.17 320 (СЗ) 20000 м    3/0 верхняя 
[Ci sp]
-15.9 -23.3 53 -16  1014.5  0.7  744  320           
18 18.02.17 тихо ()   н/о    н/о 
-19.1 -24.2 64 -19  1015.5  0.7  745  324           
21 18.02.17 тихо ()   20000 м    ясно 
-22.7 -25.8 76 -23  1016.4  0.5  745  329  -22.9      22  равномерный
сухой снег
100% 
00 19.02.17 тихо ()   н/о    н/о 
-15.9 -23 54 -16  1016.2  0.4  745  321  -23.5         
03 19.02.17 310 (СЗ) 20000 м    ясно 
-9 -22.1 34 -9  1012.8  -2.7  743  311           
06 19.02.17 260 (З) н/о    н/о 
-7.3 -21.7 31 -10  1010.5  -2  742  309           
09 19.02.17 340 (С) 20000 м    ясно 
-11.4 -21.7 42 -13  1012.2  1.3  743  314    -7       
12 19.02.17 тихо ()   н/о    н/о 
-17 -22.8 61 -17  1013.5  0.8  743  321           
15 19.02.17 тихо ()   20000 м    ясно 
-22.7 -25.4 79 -23  1014.4  0.4  744  329           
18 19.02.17 тихо ()   н/о    н/о 
-26.2 -28.5 81 -26  1014.8  0.1  744  333           
21 19.02.17 тихо ()   20000 м    ясно 
-28.6 -31.3 78 -29  1015.1  744  337  -28.6      22  равномерный
сухой снег
100% 
00 20.02.17 220 (ЮЗ) н/о    н/о 
-21 -25.5 67 -21  1015  0.6  744  327  -29.6         
03 20.02.17 180 (Ю) 20000 м    ясно 
-11.4 -23.6 36 -11  1010.9  -3.2  742  314           
06 20.02.17 330 (СЗ) н/о    н/о 
-5.5 -24.4 21 -7  1007.4  -2.9  740  306           
09 20.02.17 290 (З) 20000 м    10/0 верхняя 
[Ci fib]
-9.6 -21.1 39 -11  1009.8  741  311    -5.3       
12 20.02.17 320 (СЗ) н/о    н/о 
-12.8 -21.4 49 -15  1012.4  2.2  743  316           
15 20.02.17 340 (С) 20000 м    ясно 
-14.4 -22.6 50 -17  1013.4  0.8  743  318           
18 20.02.17 тихо ()   н/о    н/о 
-19.9 -24.3 68 -20  1015  1.1  744  325           
21 20.02.17 тихо ()   20000 м    3/0 верхняя 
[Ci fib]
-22.2 -25.3 76 -22  1017.4  2.2  746  329  -23.9      22  равномерный
сухой снег
100% 
00 21.02.17 110 (В) н/о    н/о 
-13.4 -22.4 47 -13  1018.5  1.8  747  318           
03 21.02.17 280 (З) 20000 м    3/0 верхняя 
[Ci fib]
-5.6 -22 26 -7  1016.4  -1.4  746  309           
06 21.02.17 290 (З) 2{11}  н/о    н/о 
-4.3 -21.3 25 -6  1017.1  0.8  747  307           
09 21.02.17 360 (С) 1{10}  20000 м    ясно 
-8.9 -22 34 -9  1020.4  2.9  749  314    -4.2       
12 21.02.17 360 (С) н/о    н/о 
-11.3 -22.1 40 -11  1022.5  2.9  750  317           
Время (UTC), дата Ветер
(°,м/с) 
Видим.   Явления Облачность Т
(°С)
Тd
(°С)
f(%) Тe
(°С)
Pmin
(гПа)
dP
(гПа)
Po
(мм)
O2
(г/м3)
Тmin Tmax R s Состояние
почвы

Для получения пояснительной информации подведите курсор к названию столбца.

ПОГОДА Агзу - архив

Всё, что Вы хотите узнать о погоде Агзу - удобно и подробно!

Выберите нужную дату (начиная с 1 января 2015* года) и нажмите кнопку "Найти".
Будут отображены архивные сводки погоды по пункту Агзу, начиная с указанной даты.


Отображать данные в формате CSV (для использования в таблицах Excel)


Внимание! Наш архив погоды предназначен исключительно для личного некоммерческого использования в познавательных целях. Если Вам необходимы официальные справки о состоянии погоды (для производственных, юридических, коммерческих и т.п. целей), обращайтесь в органы Росгидромета.

*Примечание: данная дата относится к архиву по метеостанциям СССР (Россия, СНГ, Балтия).
Архив по метеостанциям Зарубежной Европы и Азии (кроме Китая) хранится 10 дней, по другим регионам земного шара (Китай, Африка, Америка, Австралия, Океания) - 1 день.

Агзу - район местоположения метеостанции


Название, широта, долгота, высота метеостанции:
Агзу 47.6°ш. 138.4°д. 165 м над ур. моря [Российская Федерация]

Дополнительная информация

В oтличие oт бoльшинства пoгoдных сайтoв мы публикуем пoдрoбную метеoинфoрмацию в детальнoм прoфессиoнальнoм фoрмате.

Характеристики температуры и влажнoсти вoздуха измеряются на высoте 2 м в тени вдали oт зданий и деревьев.
Скoрoсть ветра измеряется на высoте 10 м (на урoвне рoста челoвека скoрoсть ветра ниже в 1.5-2 раза). Если метеoстанция нахoдится в гoрoде или в лесу, тo скoрoсть ветра занижена на 2-4 м/с пo сравнению с oткрытым местoм. Скoрoсть ветра над акватoриями крупных рек и oзёр, а также на вершинах хoлмoв на 2-5 м/с выше, чем в oбычных услoвиях.
Атмoсфернoе давление в разных тoчках местнoсти мoжет значительнo oтличаться oт давления на метеoстанции, в зависимoсти oт услoвий рельефа (при пoдъёме на 10 м давление пoнижается примернo на 1 мм рт.ст.).